Location: Grevenbroich
(51.0902°N, 6.5859°E)
Time: 00:39:30
(UTC+01:00)

ISS - Pass Details

Date: 15 February 2026
Orbit: 416 x 427 km, 51.6° (Epoch: 7 March)

Event Time Altitude Azimuth Distance (km) Brightness Sun altitude
Exits shadow 07:05:56 - 238° (WSW) 2,160 -0.6 -7.0°
Reaches altitude 10° 07:07:35 10° 234° (SW) 1,491 -1.4 -6.8°
Maximum altitude 07:10:50 51° 157° (SSE) 528 -3.0 -6.3°
Drops below altitude 10° 07:14:06 10° 80° (E) 1,494 0.4 -5.8°
Sets 07:16:14 0° 76° (ENE) 2,359 1.3 -5.4°
